Location: Isles
(48.9125°N, 2.8272°E)
Time: 21:29:25
(UTC+00:00)

CSL-04 Rocket - Pass Details

Date: 03 February 2023
Orbit: 806 x 859 km, 98.8° (Epoch: 21 March)

Event Time Altitude Azimuth Distance (km) Brightness Sun altitude
Exits shadow 18:47:13 37° 93° (E) 1,259 4.1 -19.6°
Maximum altitude 18:48:15 41° 65° (ENE) 1,181 4.0 -19.8°
Drops below altitude 10° 18:53:17 10° 357° (N) 2,450 6.1 -20.6°
Sets 18:55:47 0° 351° (N) 3,397 7.0 -21.0°
